Weather History for Paducah, KY

Change the Weather History Date:

Sunday, February 3, 2013

  Actual Average Record
Temperature  
Mean Temperature 35 °F 36 °F  
Max Temperature 44 °F 46 °F 70 °F (1992)
Min Temperature 26 °F 27 °F -8 °F (1985)
Degree Days  
Heating Degree Days 30 29  
Month to date heating degree days 106 87  
Since 1 July heating degree days 2479 2660  
Cooling Degree Days 0 0  
Month to date cooling degree days 0 0  
Year to date cooling degree days 0 0  
Moisture  
Dew Point 24 °F    
Average Humidity 62    
Maximum Humidity 82    
Minimum Humidity 41    
Precipitation  
Precipitation T in 0.15 in 1.68 in (1939)
Month to date precipitation T 0.44  
Year to date precipitation 8.05 4.12  
Snow  
Snow T in 0.10 in 3.00 in (1982)
Month to date snowfall T 0.4  
Since 1 July snowfall 6.1 5.7  
Snow Depth 0.00 in    
Sea Level Pressure  
Sea Level Pressure 30.12 in    
Wind  
Wind Speed 8 mph (WNW)    
Max Wind Speed 20 mph    
Max Gust Speed 31 mph    
Visibility 10 miles    
Events      
T = Trace of Precipitation, MM = Missing Value Source: NWS Daily Summary

Daily Weather History Graph

Daily Weather History Graph

Search for Another Location

Airport:

Trip Planner

Search our weather history database for the weather conditions in past years. The results will help you decide how hot, cold, wet, or windy it might be!

Date:

Astronomy

Feb. 03, 2013 Rise Set
Actual Time 6:55 AM CST 5:22 PM CST
Civil Twilight 6:28 AM CST 5:49 PM CST
Nautical Twilight 5:57 AM CST 6:20 PM CST
Astronomical Twilight 5:27 AM CST 6:51 PM CST
Moon 12:22 AM CST (2/3) 11:00 AM CST (2/3)
Length of Visible Light 11h 21m
Length of Day
10h 26m
Waning Gibbous, 48% of the Moon is Illuminated
Feb 3
Waning Gibbous
Feb 10
New
Feb 17
First Quarter
Feb 25
Full
Mar 4
Last Quarter

Hourly Weather History & Observations

Time (CST) Temp. Windchill Dew Point Humidity Pressure Visibility Wind Dir Wind Speed Gust Speed Precip Events Conditions
12:53 AM 33.1 °F 28.7 °F 28.0 °F 82% 30.09 in 10.0 mi SW 4.6 mph - N/A   Mostly Cloudy
1:53 AM 34.0 °F - 28.9 °F 82% 30.07 in 10.0 mi Calm Calm - N/A   Overcast
2:53 AM 36.0 °F 31.1 °F 28.0 °F 73% 30.02 in 10.0 mi South 5.8 mph - 0.00 in   Overcast
3:53 AM 35.1 °F 29.3 °F 28.9 °F 78% 30.02 in 10.0 mi WSW 6.9 mph - N/A   Scattered Clouds
4:53 AM 36.0 °F 28.5 °F 30.0 °F 79% 30.03 in 10.0 mi West 10.4 mph - N/A   Clear
5:53 AM 34.0 °F 27.2 °F 28.9 °F 82% 30.05 in 10.0 mi West 8.1 mph - N/A   Clear
6:53 AM 34.0 °F 27.2 °F 28.9 °F 82% 30.07 in 10.0 mi West 8.1 mph - N/A   Clear
7:53 AM 36.0 °F 29.6 °F 30.0 °F 79% 30.09 in 10.0 mi West 8.1 mph - N/A   Clear
8:53 AM 37.9 °F 30.9 °F 28.9 °F 70% 30.11 in 10.0 mi WNW 10.4 mph 18.4 mph N/A   Mostly Cloudy
9:53 AM 41.0 °F 31.9 °F 27.0 °F 57% 30.13 in 10.0 mi NW 19.6 mph 24.2 mph N/A   Scattered Clouds
10:53 AM 43.0 °F 37.2 °F 26.1 °F 51% 30.16 in 10.0 mi NW 10.4 mph 23.0 mph N/A   Mostly Cloudy
11:53 AM 41.0 °F 33.9 °F 24.1 °F 51% 30.16 in 10.0 mi WNW 12.7 mph 23.0 mph N/A   Mostly Cloudy
12:53 PM 43.0 °F 37.2 °F 24.1 °F 47% 30.16 in 10.0 mi NW 10.4 mph 20.7 mph N/A   Partly Cloudy
1:53 PM 43.0 °F 36.8 °F 23.0 °F 45% 30.16 in 10.0 mi WNW 11.5 mph - N/A   Partly Cloudy
2:53 PM 43.0 °F 36.4 °F 21.0 °F 42% 30.16 in 10.0 mi NNW 12.7 mph 18.4 mph N/A   Clear
3:53 PM 41.0 °F 33.5 °F 19.9 °F 43% 30.17 in 10.0 mi NNW 13.8 mph - N/A   Clear
4:53 PM 37.9 °F 32.1 °F 19.0 °F 47% 30.17 in 10.0 mi NNW 8.1 mph - N/A   Clear
5:53 PM 36.0 °F 33.3 °F 19.0 °F 50% 30.17 in 10.0 mi North 3.5 mph - N/A   Clear
6:53 PM 32.0 °F - 19.9 °F 61% 30.17 in 10.0 mi Calm Calm - N/A   Clear
7:53 PM 32.0 °F - 19.9 °F 61% 30.17 in 10.0 mi Calm Calm - N/A   Clear
8:53 PM 30.0 °F - 19.9 °F 66% 30.17 in 10.0 mi Calm Calm - N/A   Clear
9:53 PM 28.0 °F 21.7 °F 21.0 °F 75% 30.14 in 10.0 mi SE 5.8 mph - N/A   Clear
10:53 PM 28.0 °F 21.7 °F 19.9 °F 72% 30.13 in 10.0 mi SSE 5.8 mph - N/A   Clear
11:53 PM 28.9 °F 21.9 °F 21.0 °F 72% 30.11 in 10.0 mi SE 6.9 mph - N/A   Clear